Find Starlink 31834

NORAD ID: 59721 Int'l Des: 2024-088 Owner: SPXS Country: US Constellation: starlink operational
LEOCIRCULAR

リアルタイム位置

3D地球を読み込み中...

Starlink 31834について

説明を読み込み中...

次回通過

Passes for default location (London). Set your location on the main map for personalized predictions.

高度履歴

Loading altitude history...

軌道要素

1 59721U 24088P 26125.27933762 .00000845 00000-0 40640-4 0 9996
2 59721 53.1592 237.2399 0000922 104.3150 255.7953 15.30193530112520
Epoch: May 5, 2026 • Age: 8 hours

現在のステータス

高度 475.7 km
速度 7.63 km/s
衛星直下点 5.08°N, 157.5°E
打ち上げ日 May 10, 2024
運用期間 1.9 years
タイプ internet

技術仕様

分類 Payload
質量 730.00 kg
乾燥質量 700.00 kg
総質量 730.00 kg
長さ 0.30 m
直径 4.10 m
スパン 29.00 m
形状 Box + pan
製造者 SPXS
バスタイプ Starlink V2M
フェーズステータス In Orbit
所有者/国 SPXS/US

Most Searched